Location: Aulnoy
(48.8410°N, 3.0967°E)
Time: 09:57:16
(UTC+00:00)

SL-4 R/B - Pass Details

Date: 09 February 2023
Orbit: 423 x 638 km, 51.6° (Epoch: 23 March)

Event Time Altitude Azimuth Distance (km) Brightness Sun altitude
Rises 19:05:11 0° 287° (WNW) 2,438 6.7 -21.3°
Reaches altitude 10° 19:07:33 10° 272° (W) 1,592 5.5 -21.7°
Maximum altitude 19:10:25 23° 218° (SW) 1,047 3.8 -22.2°
Enters shadow 19:11:46 19° 187° (S) 1,208 3.8 -22.4°
